SCP
1 0 0 0 0 0 0 0 0 0 0 0 0 0 0 0 0 0 0 0 0 0 0 0 0 0 0 0 0 0 0 0 0 0 0 0 0 0 0 0 0 0 0
0 0 0 0 0 0 0 0 0 0 0 0 0 0 0 0 0 0 0 0 0 0 0 0 0 0 0 0 0 0 0 0 0 0 0 0 0 0 0 0 0 0 0
0 0 0 0 0 0 0 0 0 0 0 0 0 0 0 0 0 0 0 0 0 0 0 0 0 0 0 0 0 0 0 0 0 0 0 0 0 0 0 0 0 0 0
0 0 0 0 0 0 0 0 0 0 0 0 0 0 0 0 0 0 0 0 0 0 0 0 0 0 0 0 0 0 0 0 0 0 0 0 0 0 0 0 0 0 0
0 0 0 0 0 0 0 0 0 0 0 0 0 0 0 0 0 0 0 0 0 0 0 0 0 0 0 0 0 0 0 0 0 0 0 0 0 0 0 0 0 0 0
0 0 0 0 0 0 0 0 0 0 0 0 0 0 0 0 0 0 0 0 0 0 0 0 0 0 0 0 0 0 0 0 0 0 0 0 0 0 0 0 0 0 0
0 0 0 0 0 0 0 0 0 0 0 0 0 0 0 0 0 0 0 0 0 0 0 0 0 0 0 0 0 0 0 0 0 0 0 0 0 0 0 0 0 0 0
0 0 0 0 0 0 0 0 0 0 0 0 0 0 0 0 0 0 0 0 0 0 0 0 0 0 0 0 0 0 0 0 0 0 0 0 0 0 0 0 0 0 0
0 0 0 0 0 0 0 0 0 0 0 0 0 0 0 0 0 0 0 0 0 0 0 0 0 0 0 0 0 0 0 0 0 0 0 0 0 0 0 0 0 0 0
0 0 0 0 0 0 0 0 0 0 0 0 0 0 0 0 0 0 0 0 0 0 0 0 0 0 0 0 0 0 0 0 0 0 0 0 0 0 0 0 0 0 0
0 0 0 0 0 0 0 0 0 0 0 0 0 0 0 0 0 0 0 0 0 0 0 0 0 0 0 0 0 0 0 0 0 0 0 0 0 0 0 0 0 0 0
0 0 0 0 0 0 0 0 0 0 0 0 0 0 0 0 0 0 0 0 0 0 0 0 0 0 0 0 0 0 0 0 0 0 0 0 0 0 0 0 0 0 0
0 0 0 0 0 0 0 0 0 0 0 0 0 0 0 0 0 0 0 0 0 -0 0 0 0 0 0 0 0 0 0 0 0 0 0 0 0 0 0 0 0 0 0
0 0 0 0 0 0 0 0 0 0 0 0 0 0 0 0 0 0 -0 -0 0 0 0 0 0 0 0 0 0 0 0 0 0 0 0 0 0 0 0 0 0 0 0
0 0 0 0 0 0 0 0 0 0 0 0 0 0 0 0 0 0 0 0 0 0 0 0 0 0 0 0 0 0 0 0 0 0 0 0 0 0 0 0 0 0 0
0 0 0 0 -0 -0 -0 -0 0 0 0 0 -0 0 0 0 0 0 0 0 0 0 0 0 0 0 0 0 0 0 0 0 0 0 0 0 0 0 0 0 0 0 0
0 -0 0 -0 -0 0 0 0 -0 -0 0 0 0 0 0 0 0 0 0 0 0 0 0 0 0 0 0 0 0 0 0 0 0 0 0 0 0 0 0 0 0 0 0
0 -0 0 0 0 -0 -0 0 0 0 0 0 0 0 -0 -0 0 0 0 0 0 0 0 0 0 0 0 0 0 0 0 0 0 0 0 0 0 0 0 0 0 0 0
0 0 0 -0 -0 -0 -0 -0 -0 -0 -0 -0 0 0 0 -0 -0 0 0 0 0 0 0 0 0 0 0 0 0 0 0 0 0 0 0 0 0 0 0 0 0 0 0
0 -0 -0 -0 -0 0 0 0 0 0 0 -0 -0 -0 -0 -0 0 0 0 0 0 0 0 0 0 0 0 0 0 0 0 0 0 0 0 0 0 0 0 0 0 0 0
-0 -0 -0 -0 -0 -0 -0 -0 0 0 -0 -0 -0 -0 -0 0 0 0 0 0 0 0 0 0 0 0 0 0 0 0 0 0 0 0 0 0 0 0 0 0 0 0 0
-0 -0 -0 -0 -0 -0 -0 0 0 -0 0 -0 -0 0 -0 -0 0 0 0 0 0 0 0 0 0 0 0 0 0 0 0 0 0 0 0 0 0 0 0 0 0 0 0
-0 -0 -0 -0 -0 -0 0 -0 -0 -0 -0 0 0 -0 -0 -0 0 0 0 0 0 0 0 0 0 0 0 0 0 0 0 0 0 0 0 0 0 0 0 0 0 0 0
-0 -0 0 0 0 0 -0 -0 -0 -0 -0 0 0 0 0 0 0 0 0 0 0 0 0 0 0 0 0 0 0 0 0 0 0 0 0 0 0 0 0 0 0 0 0
0 0 -0 -0 0 0 -0 -0 0 0 0 0 0 0 0 0 0 0 0 0 0 0 0 0 0 0 0 0 0 0 0 0 0 0 0 0 0 0 0 0 0 0 0
-0 -0 0 0 0 0 0 0 0 0 0 0 0 0 0 0 0 0 0 0 0 0 0 0 0 0 0 0 0 0 0 0 0 0 0 0 0 0 0 0 0 0 0
Wind_Speed_500mb
69 68 65 58 59 51 41 36 27 21 24 32 25 24 20 18 25 22 18 14 8 7 5 12 17 19 23 27 31 33 35 36 36 40 43 44 44 47 51 51 52 56 56
51 68 67 73 66 52 43 37 28 23 29 26 21 22 21 19 19 22 23 19 8 9 11 13 15 20 24 27 30 34 36 38 39 40 42 44 48 51 53 55 58 63 67
32 68 75 65 68 52 42 37 30 29 30 27 22 21 18 16 17 12 13 12 13 14 14 12 14 17 19 23 27 26 27 30 34 42 44 45 48 52 58 61 61 62 69
36 59 78 75 58 43 40 43 35 35 31 23 20 17 15 14 15 21 15 13 13 14 16 19 22 22 18 10 16 27 29 35 35 37 37 41 44 40 46 52 60 68 75
42 51 61 65 50 44 53 53 37 35 33 26 21 20 18 17 19 17 16 15 17 18 19 22 25 25 19 13 10 16 24 30 33 32 33 35 32 27 25 24 25 37 29
44 69 55 52 38 55 63 53 39 41 32 27 24 22 21 24 21 20 18 20 18 21 21 22 14 7 5 7 8 13 14 24 25 28 33 33 33 34 35 35 30 26 26
39 65 51 59 53 65 64 48 38 33 34 32 34 31 28 21 20 18 21 20 18 11 4 6 7 10 11 13 15 18 21 27 30 32 35 38 38 36 36 35 33 31 27
44 59 45 64 61 62 60 47 45 49 39 40 42 32 25 20 20 13 14 8 11 12 15 11 9 9 9 12 17 19 21 25 29 31 30 32 30 31 30 30 30 29 26
47 51 53 64 62 58 55 45 56 48 50 48 38 30 20 14 26 17 17 18 20 17 15 11 11 14 14 18 19 20 23 27 27 27 28 28 29 29 30 30 32 32 35
49 56 54 56 54 57 54 61 45 46 47 42 44 32 21 27 24 18 25 26 24 20 18 17 16 15 15 18 20 21 24 26 28 29 28 28 29 30 30 31 34 39 39
43 44 47 49 47 51 58 48 47 52 45 44 46 44 29 28 26 43 37 33 27 23 24 21 19 16 16 17 20 24 26 27 29 28 30 31 32 35 37 39 40 41 44
40 32 31 44 40 54 49 48 56 48 44 48 32 32 20 21 26 23 43 36 33 28 25 20 14 18 21 24 26 28 29 28 29 29 32 35 36 37 37 39 40 41 42
42 37 34 31 45 43 44 52 53 44 42 41 22 17 14 19 23 25 46 40 33 28 19 11 9 19 24 25 26 27 28 28 29 30 31 34 38 42 44 45 46 46 43
32 35 26 31 40 37 50 47 61 47 35 23 32 42 37 36 34 32 29 30 32 21 16 5 9 19 21 23 26 26 27 28 28 33 39 44 46 46 44 47 50 49 42
40 31 27 23 44 57 58 50 48 47 47 49 36 39 37 32 24 20 16 19 19 22 12 4 5 14 18 20 24 27 29 31 34 36 41 43 45 48 52 54 55 54 52
50 50 59 70 69 62 62 62 63 56 51 52 41 36 31 26 21 18 16 14 14 14 14 8 3 11 16 21 24 28 29 29 33 38 41 45 47 49 50 51 51 49 45
81 76 71 67 73 67 62 60 60 54 50 41 36 28 30 25 20 17 15 13 12 11 13 9 2 11 16 20 23 25 26 31 37 41 39 42 45 49 50 49 47 45 38
75 77 72 69 66 62 59 57 56 49 44 39 35 27 28 24 19 18 17 16 15 13 9 7 5 13 18 21 24 27 33 34 35 33 38 44 48 50 51 52 51 49 45
67 66 63 62 58 55 52 50 45 43 39 37 32 27 28 24 21 20 18 17 15 13 11 10 11 14 17 19 20 25 28 31 35 35 40 50 54 49 50 53 52 50 47
51 52 54 55 53 50 47 45 40 39 37 35 31 28 28 25 22 20 18 17 17 16 14 13 11 13 17 22 28 31 33 39 43 42 46 50 53 49 52 53 54 52 47
48 48 48 48 46 45 42 37 36 36 34 32 31 29 27 24 22 20 19 18 16 12 9 9 14 18 21 26 35 40 43 47 50 51 55 55 54 51 53 55 55 50 45
41 41 42 41 39 40 38 36 33 33 32 30 29 28 27 25 21 20 18 16 14 14 14 15 16 19 24 30 36 41 47 55 54 52 61 58 50 50 53 56 53 44 39
36 35 37 36 36 38 37 34 32 30 28 27 26 26 24 22 19 18 17 15 13 13 14 15 18 21 26 31 33 39 43 49 54 59 62 61 53 55 53 52 41 35 50
30 31 33 32 32 33 33 31 28 25 23 22 21 21 19 18 16 12 10 10 11 14 15 18 21 25 30 32 34 39 44 49 49 52 58 58 61 61 56 47 32 49 53
30 29 29 29 28 28 28 27 23 20 18 18 15 14 13 11 8 9 11 10 11 14 18 22 26 29 31 32 34 36 41 50 56 54 47 55 62 67 63 37 40 54 51
32 31 29 25 22 21 23 24 22 19 15 13 11 9 6 5 6 7 9 11 15 18 21 23 26 27 29 32 35 36 40 45 50 54 46 56 57 58 47 34 65 58 38
Wind_Direction_500mb
223 216 213 225 212 209 208 206 213 213 188 196 199 212 214 195 181 176 182 187 230 302 290 245 250 262 274 282 289 294 298 302 301 303 302 302 299 295 284 282 279 275 271
230 220 209 206 211 208 208 210 204 207 201 206 214 209 198 189 183 194 208 217 216 231 254 267 275 280 287 294 306 309 306 303 300 303 305 300 297 294 290 286 283 280 276
227 219 212 211 202 198 212 212 207 202 200 213 216 200 193 186 183 177 187 195 208 222 243 270 312 315 318 323 327 327 321 314 315 308 306 303 295 290 290 285 281 277 275
216 233 219 199 209 202 204 212 205 197 202 208 195 188 183 173 165 192 194 193 195 218 243 278 300 310 321 338 338 344 339 328 327 323 316 307 306 306 291 294 287 281 277
211 241 216 204 180 213 202 209 209 211 202 199 187 163 156 167 182 192 192 203 229 253 270 283 297 298 307 313 32 17 16 1 348 8 7 10 5 356 331 334 338 292 278
199 220 216 192 205 208 212 212 200 209 208 194 167 162 180 181 194 196 206 226 248 257 272 287 308 351 54 54 56 62 28 35 24 10 10 11 12 18 14 16 15 14 10
188 227 209 206 194 199 209 210 200 198 191 167 168 178 175 182 197 203 228 244 255 261 245 156 116 99 83 72 57 33 9 6 10 17 21 24 24 17 14 13 14 7 357
190 210 206 187 196 195 190 191 211 185 183 175 178 178 177 187 193 209 239 210 160 140 130 129 120 100 73 32 20 22 28 17 12 10 5 1 357 360 359 354 345 340 336
192 198 202 198 203 202 201 205 193 181 181 186 187 172 170 179 175 143 139 137 131 128 124 117 85 70 50 46 37 16 7 356 355 351 347 341 339 336 330 324 321 319 318
192 197 208 206 206 206 206 193 188 189 188 186 184 188 181 178 162 139 126 119 118 115 109 95 86 75 55 37 18 5 2 357 355 351 347 344 341 332 322 311 306 307 309
192 198 203 208 204 205 202 209 208 195 196 190 192 197 200 163 159 158 140 127 121 113 103 91 78 57 42 27 6 360 358 352 350 348 348 347 343 340 336 331 323 317 312
186 191 191 208 205 207 204 209 197 194 198 174 166 180 189 212 207 173 150 139 132 108 99 96 70 33 16 9 3 359 354 354 354 354 353 351 349 348 347 343 336 331 330
190 182 192 196 210 207 210 210 193 200 157 148 143 165 156 135 154 164 148 143 134 126 113 81 45 15 9 3 356 355 351 349 350 349 349 348 348 347 346 342 337 331 329
149 165 183 188 190 216 213 202 157 139 135 133 135 135 141 126 121 127 138 145 137 133 130 115 20 357 355 355 355 349 346 350 351 351 350 350 345 340 334 331 329 325 325
133 144 164 175 166 144 131 121 120 123 130 130 136 126 129 119 123 121 137 154 170 158 143 129 341 343 346 347 353 357 358 357 350 350 350 346 342 340 337 333 328 322 317
119 116 119 115 111 108 117 119 117 118 131 122 122 124 131 127 125 131 137 143 152 166 153 170 321 335 348 353 358 360 357 351 347 350 350 347 344 339 335 333 331 330 330
107 109 111 111 110 116 118 119 119 123 126 127 127 127 121 120 128 127 119 114 111 116 136 139 355 340 353 360 1 356 354 356 356 356 350 344 341 341 340 338 336 333 328
113 111 114 114 115 116 118 119 121 125 124 124 120 124 116 112 111 106 102 99 96 95 89 80 6 355 2 2 358 1 3 360 358 351 345 343 347 345 343 338 336 331 329
119 120 122 121 120 119 117 114 117 118 119 116 115 114 107 104 102 95 83 69 60 55 51 44 15 1 2 6 8 11 3 356 354 352 355 353 350 346 343 338 336 331 326
114 117 118 117 116 117 116 116 119 116 115 112 110 105 100 95 87 78 69 58 50 41 32 25 15 3 10 9 6 358 357 356 358 357 356 352 348 345 342 337 334 329 323
123 121 118 117 116 116 114 116 113 111 108 111 109 101 95 85 75 67 59 54 50 46 44 34 26 15 5 0 0 357 353 354 356 350 347 348 344 344 343 338 332 328 325
125 122 121 119 121 119 115 112 110 110 111 104 99 94 85 80 73 65 55 49 47 35 31 29 19 7 358 358 355 349 352 352 354 343 341 345 345 351 345 342 336 334 339
130 132 128 125 123 116 112 111 108 104 101 95 88 82 76 71 62 52 41 31 25 17 11 4 2 356 352 352 349 348 350 348 345 342 337 341 345 349 350 344 335 336 334
143 140 132 127 121 114 111 109 107 107 104 102 93 84 72 56 46 40 30 19 11 9 0 351 347 348 347 348 347 345 342 340 336 334 338 338 343 342 349 346 341 334 332
155 148 139 134 131 129 126 121 123 123 118 111 108 94 78 67 54 29 19 1 355 350 352 348 344 343 340 339 341 336 334 334 333 337 340 336 340 335 344 349 337 334 333
168 159 154 149 149 150 147 146 147 145 137 122 110 99 90 61 30 2 356 355 347 341 339 337 336 332 332 333 330 333 335 334 332 335 336 332 336 340 335 330 333 336 334
Wind_Speed_850mb
69 68 65 58 59 51 41 36 27 21 24 32 25 24 20 18 25 22 18 14 8 7 5 12 17 19 23 27 31 33 35 36 36 40 43 44 44 47 51 51 52 56 56
51 68 67 73 66 52 43 37 28 23 29 26 21 22 21 19 19 22 23 19 8 9 11 13 15 20 24 27 30 34 36 38 39 40 42 44 48 51 53 55 58 63 67
32 68 75 65 68 52 42 37 30 29 30 27 22 21 18 16 17 12 13 12 13 14 14 12 14 17 19 23 27 26 27 30 34 42 44 45 48 52 58 61 61 62 69
36 59 78 75 58 43 40 43 35 35 31 23 20 17 15 14 15 21 15 13 13 14 16 19 22 22 18 10 16 27 29 35 35 37 37 41 44 40 46 52 60 68 75
42 51 61 65 50 44 53 53 37 35 33 26 21 20 18 17 19 17 16 15 17 18 19 22 25 25 19 13 10 16 24 30 33 32 33 35 32 27 25 24 25 37 29
44 69 55 52 38 55 63 53 39 41 32 27 24 22 21 24 21 20 18 20 18 21 21 22 14 7 5 7 8 13 14 24 25 28 33 33 33 34 35 35 30 26 26
39 65 51 59 53 65 64 48 38 33 34 32 34 31 28 21 20 18 21 20 18 11 4 6 7 10 11 13 15 18 21 27 30 32 35 38 38 36 36 35 33 31 27
44 59 45 64 61 62 60 47 45 49 39 40 42 32 25 20 20 13 14 8 11 12 15 11 9 9 9 12 17 19 21 25 29 31 30 32 30 31 30 30 30 29 26
47 51 53 64 62 58 55 45 56 48 50 48 38 30 20 14 26 17 17 18 20 17 15 11 11 14 14 18 19 20 23 27 27 27 28 28 29 29 30 30 32 32 35
49 56 54 56 54 57 54 61 45 46 47 42 44 32 21 27 24 18 25 26 24 20 18 17 16 15 15 18 20 21 24 26 28 29 28 28 29 30 30 31 34 39 39
43 44 47 49 47 51 58 48 47 52 45 44 46 44 29 28 26 43 37 33 27 23 24 21 19 16 16 17 20 24 26 27 29 28 30 31 32 35 37 39 40 41 44
40 32 31 44 40 54 49 48 56 48 44 48 32 32 20 21 26 23 43 36 33 28 25 20 14 18 21 24 26 28 29 28 29 29 32 35 36 37 37 39 40 41 42
42 37 34 31 45 43 44 52 53 44 42 41 22 17 14 19 23 25 46 40 33 28 19 11 9 19 24 25 26 27 28 28 29 30 31 34 38 42 44 45 46 46 43
32 35 26 31 40 37 50 47 61 47 35 23 32 42 37 36 34 32 29 30 32 21 16 5 9 19 21 23 26 26 27 28 28 33 39 44 46 46 44 47 50 49 42
40 31 27 23 44 57 58 50 48 47 47 49 36 39 37 32 24 20 16 19 19 22 12 4 5 14 18 20 24 27 29 31 34 36 41 43 45 48 52 54 55 54 52
50 50 59 70 69 62 62 62 63 56 51 52 41 36 31 26 21 18 16 14 14 14 14 8 3 11 16 21 24 28 29 29 33 38 41 45 47 49 50 51 51 49 45
81 76 71 67 73 67 62 60 60 54 50 41 36 28 30 25 20 17 15 13 12 11 13 9 2 11 16 20 23 25 26 31 37 41 39 42 45 49 50 49 47 45 38
75 77 72 69 66 62 59 57 56 49 44 39 35 27 28 24 19 18 17 16 15 13 9 7 5 13 18 21 24 27 33 34 35 33 38 44 48 50 51 52 51 49 45
67 66 63 62 58 55 52 50 45 43 39 37 32 27 28 24 21 20 18 17 15 13 11 10 11 14 17 19 20 25 28 31 35 35 40 50 54 49 50 53 52 50 47
51 52 54 55 53 50 47 45 40 39 37 35 31 28 28 25 22 20 18 17 17 16 14 13 11 13 17 22 28 31 33 39 43 42 46 50 53 49 52 53 54 52 47
48 48 48 48 46 45 42 37 36 36 34 32 31 29 27 24 22 20 19 18 16 12 9 9 14 18 21 26 35 40 43 47 50 51 55 55 54 51 53 55 55 50 45
41 41 42 41 39 40 38 36 33 33 32 30 29 28 27 25 21 20 18 16 14 14 14 15 16 19 24 30 36 41 47 55 54 52 61 58 50 50 53 56 53 44 39
36 35 37 36 36 38 37 34 32 30 28 27 26 26 24 22 19 18 17 15 13 13 14 15 18 21 26 31 33 39 43 49 54 59 62 61 53 55 53 52 41 35 50
30 31 33 32 32 33 33 31 28 25 23 22 21 21 19 18 16 12 10 10 11 14 15 18 21 25 30 32 34 39 44 49 49 52 58 58 61 61 56 47 32 49 53
30 29 29 29 28 28 28 27 23 20 18 18 15 14 13 11 8 9 11 10 11 14 18 22 26 29 31 32 34 36 41 50 56 54 47 55 62 67 63 37 40 54 51
32 31 29 25 22 21 23 24 22 19 15 13 11 9 6 5 6 7 9 11 15 18 21 23 26 27 29 32 35 36 40 45 50 54 46 56 57 58 47 34 65 58 38
Wind_Direction_850mb
223 216 213 225 212 209 208 206 213 213 188 196 199 212 214 195 181 176 182 187 230 302 290 245 250 262 274 282 289 294 298 302 301 303 302 302 299 295 284 282 279 275 271
230 220 209 206 211 208 208 210 204 207 201 206 214 209 198 189 183 194 208 217 216 231 254 267 275 280 287 294 306 309 306 303 300 303 305 300 297 294 290 286 283 280 276
227 219 212 211 202 198 212 212 207 202 200 213 216 200 193 186 183 177 187 195 208 222 243 270 312 315 318 323 327 327 321 314 315 308 306 303 295 290 290 285 281 277 275
216 233 219 199 209 202 204 212 205 197 202 208 195 188 183 173 165 192 194 193 195 218 243 278 300 310 321 338 338 344 339 328 327 323 316 307 306 306 291 294 287 281 277
211 241 216 204 180 213 202 209 209 211 202 199 187 163 156 167 182 192 192 203 229 253 270 283 297 298 307 313 32 17 16 1 348 8 7 10 5 356 331 334 338 292 278
199 220 216 192 205 208 212 212 200 209 208 194 167 162 180 181 194 196 206 226 248 257 272 287 308 351 54 54 56 62 28 35 24 10 10 11 12 18 14 16 15 14 10
188 227 209 206 194 199 209 210 200 198 191 167 168 178 175 182 197 203 228 244 255 261 245 156 116 99 83 72 57 33 9 6 10 17 21 24 24 17 14 13 14 7 357
190 210 206 187 196 195 190 191 211 185 183 175 178 178 177 187 193 209 239 210 160 140 130 129 120 100 73 32 20 22 28 17 12 10 5 1 357 360 359 354 345 340 336
192 198 202 198 203 202 201 205 193 181 181 186 187 172 170 179 175 143 139 137 131 128 124 117 85 70 50 46 37 16 7 356 355 351 347 341 339 336 330 324 321 319 318
192 197 208 206 206 206 206 193 188 189 188 186 184 188 181 178 162 139 126 119 118 115 109 95 86 75 55 37 18 5 2 357 355 351 347 344 341 332 322 311 306 307 309
192 198 203 208 204 205 202 209 208 195 196 190 192 197 200 163 159 158 140 127 121 113 103 91 78 57 42 27 6 360 358 352 350 348 348 347 343 340 336 331 323 317 312
186 191 191 208 205 207 204 209 197 194 198 174 166 180 189 212 207 173 150 139 132 108 99 96 70 33 16 9 3 359 354 354 354 354 353 351 349 348 347 343 336 331 330
190 182 192 196 210 207 210 210 193 200 157 148 143 165 156 135 154 164 148 143 134 126 113 81 45 15 9 3 356 355 351 349 350 349 349 348 348 347 346 342 337 331 329
149 165 183 188 190 216 213 202 157 139 135 133 135 135 141 126 121 127 138 145 137 133 130 115 20 357 355 355 355 349 346 350 351 351 350 350 345 340 334 331 329 325 325
133 144 164 175 166 144 131 121 120 123 130 130 136 126 129 119 123 121 137 154 170 158 143 129 341 343 346 347 353 357 358 357 350 350 350 346 342 340 337 333 328 322 317
119 116 119 115 111 108 117 119 117 118 131 122 122 124 131 127 125 131 137 143 152 166 153 170 321 335 348 353 358 360 357 351 347 350 350 347 344 339 335 333 331 330 330
107 109 111 111 110 116 118 119 119 123 126 127 127 127 121 120 128 127 119 114 111 116 136 139 355 340 353 360 1 356 354 356 356 356 350 344 341 341 340 338 336 333 328
113 111 114 114 115 116 118 119 121 125 124 124 120 124 116 112 111 106 102 99 96 95 89 80 6 355 2 2 358 1 3 360 358 351 345 343 347 345 343 338 336 331 329
119 120 122 121 120 119 117 114 117 118 119 116 115 114 107 104 102 95 83 69 60 55 51 44 15 1 2 6 8 11 3 356 354 352 355 353 350 346 343 338 336 331 326
114 117 118 117 116 117 116 116 119 116 115 112 110 105 100 95 87 78 69 58 50 41 32 25 15 3 10 9 6 358 357 356 358 357 356 352 348 345 342 337 334 329 323
123 121 118 117 116 116 114 116 113 111 108 111 109 101 95 85 75 67 59 54 50 46 44 34 26 15 5 0 0 357 353 354 356 350 347 348 344 344 343 338 332 328 325
125 122 121 119 121 119 115 112 110 110 111 104 99 94 85 80 73 65 55 49 47 35 31 29 19 7 358 358 355 349 352 352 354 343 341 345 345 351 345 342 336 334 339
130 132 128 125 123 116 112 111 108 104 101 95 88 82 76 71 62 52 41 31 25 17 11 4 2 356 352 352 349 348 350 348 345 342 337 341 345 349 350 344 335 336 334
143 140 132 127 121 114 111 109 107 107 104 102 93 84 72 56 46 40 30 19 11 9 0 351 347 348 347 348 347 345 342 340 336 334 338 338 343 342 349 346 341 334 332
155 148 139 134 131 129 126 121 123 123 118 111 108 94 78 67 54 29 19 1 355 350 352 348 344 343 340 339 341 336 334 334 333 337 340 336 340 335 344 349 337 334 333
168 159 154 149 149 150 147 146 147 145 137 122 110 99 90 61 30 2 356 355 347 341 339 337 336 332 332 333 330 333 335 334 332 335 336 332 336 340 335 330 333 336 334